Location: Les Gen�tes
(46.3104°N, 1.5969°E)
Time: 10:57:03
(UTC+00:00)

FALCON 9 DEB - Pass Details

Date: 01 June 2020
Orbit: 428 x 442 km, 53.0° (Epoch: 05 July)

Event Time Altitude Azimuth Distance (km) Brightness Sun altitude
Exits shadow 23:19:57 38° 71° (ENE) 679 4.1 -21.1°
Drops below altitude 10° 23:22:12 10° 62° (ENE) 1,537 6.1 -21.1°
Sets 23:24:20 0° 61° (ENE) 2,410 7.2 -21.2°
